Time,TemperatureF,DewpointF,PressureIn,WindDirection,WindDirectionDegrees,WindSpeedMPH,WindSpeedGustMPH,Humidity,HourlyPrecipIn,Conditions,Clouds,dailyrainin,SoftwareType,DateUTC
2013-10-02 00:01:00,61.2,55.0,29.93,North,-999,-999.0,0.0,80,0.00,,---,0.00,VWS V14.01,2013-10-02 04:01:00,
2013-10-02 00:02:00,61.2,55.0,29.93,North,-999,-999.0,0.0,80,0.00,,---,0.00,VWS V14.01,2013-10-02 04:02:00,
2013-10-02 00:04:00,61.2,55.0,29.92,North,-999,-999.0,0.0,80,0.00,,---,0.00,VWS V14.01,2013-10-02 04:04:00,
2013-10-02 00:06:00,61.2,55.0,29.93,North,-999,-999.0,0.0,80,0.00,,---,0.00,VWS V14.01,2013-10-02 04:06:00,
2013-10-02 00:12:00,61.0,55.1,29.92,North,-999,-999.0,0.0,81,0.00,,---,0.00,VWS V14.01,2013-10-02 04:12:00,
2013-10-02 00:17:00,60.8,54.9,29.93,North,-999,-999.0,0.0,81,0.00,,---,0.00,VWS V14.01,2013-10-02 04:17:00,
2013-10-02 00:22:00,60.8,54.9,29.92,North,-999,-999.0,0.0,81,0.00,,---,0.00,VWS V14.01,2013-10-02 04:22:00,
2013-10-02 00:27:00,60.7,54.8,29.93,North,-999,-999.0,0.0,81,0.00,,---,0.00,VWS V14.01,2013-10-02 04:27:00,
2013-10-02 00:32:00,60.5,54.7,29.93,North,-999,-999.0,0.0,81,0.00,,---,0.00,VWS V14.01,2013-10-02 04:32:00,
2013-10-02 00:37:00,60.5,54.7,29.92,North,-999,-999.0,0.0,81,0.00,,---,0.00,VWS V14.01,2013-10-02 04:37:00,
2013-10-02 00:42:00,60.3,54.5,29.92,North,-999,-999.0,0.0,81,0.00,,---,0.00,VWS V14.01,2013-10-02 04:42:00,
2013-10-02 00:47:00,60.3,54.8,29.92,North,-999,-999.0,0.0,82,0.00,,---,0.00,VWS V14.01,2013-10-02 04:47:00,
2013-10-02 00:52:00,60.1,54.6,29.92,North,-999,-999.0,0.0,82,0.00,,---,0.00,VWS V14.01,2013-10-02 04:52:00,
2013-10-02 00:57:00,60.1,54.6,29.92,North,-999,-999.0,0.0,82,0.00,,---,0.00,VWS V14.01,2013-10-02 04:57:00,
2013-10-02 01:03:00,60.1,54.6,29.92,North,-999,-999.0,0.0,82,0.00,,---,0.00,VWS V14.01,2013-10-02 05:03:00,
2013-10-02 01:08:00,59.9,54.4,29.92,North,-999,-999.0,0.0,82,0.00,,---,0.00,VWS V14.01,2013-10-02 05:08:00,
2013-10-02 01:13:00,60.1,54.6,29.92,North,-999,-999.0,0.0,82,0.00,,---,0.00,VWS V14.01,2013-10-02 05:13:00,
2013-10-02 01:18:00,59.9,54.4,29.93,North,-999,-999.0,0.0,82,0.00,,---,0.00,VWS V14.01,2013-10-02 05:18:00,
2013-10-02 01:23:00,59.9,54.4,29.92,North,-999,-999.0,0.0,82,0.00,,---,0.00,VWS V14.01,2013-10-02 05:23:00,
2013-10-02 01:28:00,59.9,54.4,29.92,North,-999,-999.0,0.0,82,0.00,,---,0.00,VWS V14.01,2013-10-02 05:28:00,
2013-10-02 01:33:00,59.9,54.7,29.92,North,-999,-999.0,0.0,83,0.00,,---,0.00,VWS V14.01,2013-10-02 05:33:00,
2013-10-02 01:38:00,59.9,54.4,29.92,North,-999,-999.0,0.0,82,0.00,,---,0.00,VWS V14.01,2013-10-02 05:38:00,
2013-10-02 01:43:00,59.8,54.6,29.92,North,-999,-999.0,0.0,83,0.00,,---,0.00,VWS V14.01,2013-10-02 05:43:00,
2013-10-02 01:48:00,59.8,54.6,29.92,North,-999,-999.0,0.0,83,0.00,,---,0.00,VWS V14.01,2013-10-02 05:48:00,
2013-10-02 01:53:00,59.8,54.6,29.92,North,-999,-999.0,0.0,83,0.00,,---,0.00,VWS V14.01,2013-10-02 05:53:00,
2013-10-02 01:58:00,59.6,54.4,29.92,North,-999,-999.0,0.0,83,0.00,,---,0.00,VWS V14.01,2013-10-02 05:58:00,
2013-10-02 02:04:00,59.6,54.4,29.92,North,-999,-999.0,0.0,83,0.00,,---,0.00,VWS V14.01,2013-10-02 06:04:00,
2013-10-02 02:09:00,59.4,54.2,29.92,North,-999,-999.0,0.0,83,0.00,,---,0.00,VWS V14.01,2013-10-02 06:09:00,
2013-10-02 02:14:00,59.4,54.2,29.92,North,-999,-999.0,0.0,83,0.00,,---,0.00,VWS V14.01,2013-10-02 06:14:00,
2013-10-02 02:19:00,59.2,54.0,29.92,North,-999,-999.0,0.0,83,0.00,,---,0.00,VWS V14.01,2013-10-02 06:19:00,
2013-10-02 02:24:00,59.2,54.0,29.92,North,-999,-999.0,0.0,83,0.00,,---,0.00,VWS V14.01,2013-10-02 06:24:00,
2013-10-02 02:29:00,59.0,53.8,29.92,North,-999,-999.0,0.0,83,0.00,,---,0.00,VWS V14.01,2013-10-02 06:29:00,
2013-10-02 02:34:00,58.9,53.8,29.92,North,-999,-999.0,0.0,83,0.00,,---,0.00,VWS V14.01,2013-10-02 06:34:00,
2013-10-02 02:39:00,58.9,53.8,29.92,North,-999,-999.0,0.0,83,0.00,,---,0.00,VWS V14.01,2013-10-02 06:39:00,
2013-10-02 02:44:00,58.7,53.9,29.92,North,-999,-999.0,0.0,84,0.00,,---,0.00,VWS V14.01,2013-10-02 06:44:00,
2013-10-02 02:49:00,58.7,53.6,29.92,North,-999,-999.0,0.0,83,0.00,,---,0.00,VWS V14.01,2013-10-02 06:49:00,
2013-10-02 02:54:00,58.7,53.9,29.91,North,-999,-999.0,0.0,84,0.00,,---,0.00,VWS V14.01,2013-10-02 06:54:00,
2013-10-02 02:59:00,58.7,53.9,29.91,North,-999,-999.0,0.0,84,0.00,,---,0.00,VWS V14.01,2013-10-02 06:59:00,
2013-10-02 03:04:00,58.5,53.7,29.91,North,-999,-999.0,0.0,84,0.00,,---,0.00,VWS V14.01,2013-10-02 07:04:00,
2013-10-02 03:10:00,58.3,53.5,29.91,North,-999,-999.0,0.0,84,0.00,,---,0.00,VWS V14.01,2013-10-02 07:10:00,
2013-10-02 03:15:00,58.3,53.5,29.91,North,-999,-999.0,0.0,84,0.00,,---,0.00,VWS V14.01,2013-10-02 07:15:00,
2013-10-02 03:20:00,58.1,53.3,29.91,North,-999,-999.0,0.0,84,0.00,,---,0.00,VWS V14.01,2013-10-02 07:20:00,
2013-10-02 03:25:00,58.1,53.3,29.91,North,-999,-999.0,0.0,84,0.00,,---,0.00,VWS V14.01,2013-10-02 07:25:00,
2013-10-02 03:30:00,58.1,53.3,29.91,North,-999,-999.0,0.0,84,0.00,,---,0.00,VWS V14.01,2013-10-02 07:30:00,
2013-10-02 03:35:00,58.1,53.3,29.91,North,-999,-999.0,0.0,84,0.00,,---,0.00,VWS V14.01,2013-10-02 07:35:00,
2013-10-02 03:40:00,58.1,53.3,29.91,North,-999,-999.0,0.0,84,0.00,,---,0.00,VWS V14.01,2013-10-02 07:40:00,
2013-10-02 03:45:00,58.0,53.2,29.91,North,-999,-999.0,0.0,84,0.00,,---,0.00,VWS V14.01,2013-10-02 07:45:00,
2013-10-02 03:50:00,58.0,53.2,29.91,North,-999,-999.0,0.0,84,0.00,,---,0.00,VWS V14.01,2013-10-02 07:50:00,
2013-10-02 03:55:00,58.0,53.2,29.91,North,-999,-999.0,0.0,84,0.00,,---,0.00,VWS V14.01,2013-10-02 07:55:00,
2013-10-02 04:00:00,58.0,53.2,29.90,North,-999,-999.0,0.0,84,0.00,,---,0.00,VWS V14.01,2013-10-02 08:00:00,
2013-10-02 04:06:00,58.0,53.5,29.91,North,-999,-999.0,0.0,85,0.00,,---,0.00,VWS V14.01,2013-10-02 08:06:00,
2013-10-02 04:11:00,57.8,53.3,29.91,North,-999,-999.0,0.0,85,0.00,,---,0.00,VWS V14.01,2013-10-02 08:11:00,
2013-10-02 04:16:00,57.8,53.3,29.91,North,-999,-999.0,0.0,85,0.00,,---,0.00,VWS V14.01,2013-10-02 08:16:00,
2013-10-02 04:21:00,57.8,53.3,29.91,North,-999,-999.0,0.0,85,0.00,,---,0.00,VWS V14.01,2013-10-02 08:21:00,
2013-10-02 04:26:00,57.8,53.3,29.91,North,-999,-999.0,0.0,85,0.00,,---,0.00,VWS V14.01,2013-10-02 08:26:00,
2013-10-02 04:31:00,57.6,53.1,29.91,North,-999,-999.0,0.0,85,0.00,,---,0.00,VWS V14.01,2013-10-02 08:31:00,
2013-10-02 04:36:00,57.6,53.1,29.90,North,-999,-999.0,0.0,85,0.00,,---,0.00,VWS V14.01,2013-10-02 08:36:00,
2013-10-02 04:41:00,57.4,52.9,29.90,North,-999,-999.0,0.0,85,0.00,,---,0.00,VWS V14.01,2013-10-02 08:41:00,
2013-10-02 04:46:00,57.2,52.4,29.91,North,-999,-999.0,0.0,84,0.00,,---,0.00,VWS V14.01,2013-10-02 08:46:00,
2013-10-02 04:51:00,57.2,52.4,29.90,North,-999,-999.0,0.0,84,0.00,,---,0.00,VWS V14.01,2013-10-02 08:51:00,
2013-10-02 04:56:00,57.2,52.4,29.91,North,-999,-999.0,0.0,84,0.00,,---,0.00,VWS V14.01,2013-10-02 08:56:00,
2013-10-02 05:02:00,57.2,52.4,29.90,North,-999,-999.0,0.0,84,0.00,,---,0.00,VWS V14.01,2013-10-02 09:02:00,
2013-10-02 05:07:00,57.1,52.3,29.90,North,-999,-999.0,0.0,84,0.00,,---,0.00,VWS V14.01,2013-10-02 09:07:00,
2013-10-02 05:12:00,57.1,52.3,29.90,North,-999,-999.0,0.0,84,0.00,,---,0.00,VWS V14.01,2013-10-02 09:12:00,
2013-10-02 05:17:00,57.1,52.3,29.91,North,-999,-999.0,0.0,84,0.00,,---,0.00,VWS V14.01,2013-10-02 09:17:00,
2013-10-02 05:22:00,56.9,52.4,29.90,North,-999,-999.0,0.0,85,0.00,,---,0.00,VWS V14.01,2013-10-02 09:22:00,
2013-10-02 05:27:00,56.9,52.4,29.90,North,-999,-999.0,0.0,85,0.00,,---,0.00,VWS V14.01,2013-10-02 09:27:00,
2013-10-02 05:32:00,56.7,52.2,29.91,North,-999,-999.0,0.0,85,0.00,,---,0.00,VWS V14.01,2013-10-02 09:32:00,
2013-10-02 05:37:00,56.7,52.2,29.91,North,-999,-999.0,0.0,85,0.00,,---,0.00,VWS V14.01,2013-10-02 09:37:00,
2013-10-02 05:42:00,56.5,52.0,29.91,North,-999,-999.0,0.0,85,0.00,,---,0.00,VWS V14.01,2013-10-02 09:42:00,
2013-10-02 05:47:00,56.5,52.0,29.91,North,-999,-999.0,0.0,85,0.00,,---,0.00,VWS V14.01,2013-10-02 09:47:00,
2013-10-02 05:52:00,56.5,52.0,29.91,North,-999,-999.0,0.0,85,0.00,,---,0.00,VWS V14.01,2013-10-02 09:52:00,
2013-10-02 05:57:00,56.5,52.0,29.91,North,-999,-999.0,0.0,85,0.00,,---,0.00,VWS V14.01,2013-10-02 09:57:00,
2013-10-02 06:02:00,56.3,51.9,29.92,North,-999,-999.0,0.0,85,0.00,,---,0.00,VWS V14.01,2013-10-02 10:02:00,
2013-10-02 06:08:00,56.2,51.8,29.92,North,-999,-999.0,0.0,85,0.00,,---,0.00,VWS V14.01,2013-10-02 10:08:00,
2013-10-02 06:13:00,56.2,51.8,29.92,North,-999,-999.0,0.0,85,0.00,,---,0.00,VWS V14.01,2013-10-02 10:13:00,
2013-10-02 06:18:00,56.2,51.8,29.92,North,-999,-999.0,0.0,85,0.00,,---,0.00,VWS V14.01,2013-10-02 10:18:00,
2013-10-02 06:23:00,56.0,51.6,29.92,North,-999,-999.0,0.0,85,0.00,,---,0.00,VWS V14.01,2013-10-02 10:23:00,
2013-10-02 06:28:00,56.0,51.9,29.92,North,-999,-999.0,0.0,86,0.00,,---,0.00,VWS V14.01,2013-10-02 10:28:00,
2013-10-02 06:33:00,55.8,51.7,29.93,North,-999,-999.0,0.0,86,0.00,,---,0.00,VWS V14.01,2013-10-02 10:33:00,
2013-10-02 06:38:00,55.8,51.7,29.93,North,-999,-999.0,0.0,86,0.00,,---,0.00,VWS V14.01,2013-10-02 10:38:00,
2013-10-02 06:43:00,55.8,51.7,29.93,North,-999,-999.0,0.0,86,0.00,,---,0.00,VWS V14.01,2013-10-02 10:43:00,
2013-10-02 06:48:00,55.6,51.5,29.93,North,-999,-999.0,0.0,86,0.00,,---,0.00,VWS V14.01,2013-10-02 10:48:00,
2013-10-02 06:53:00,55.6,51.5,29.93,North,-999,-999.0,0.0,86,0.00,,---,0.00,VWS V14.01,2013-10-02 10:53:00,
2013-10-02 06:58:00,55.6,51.5,29.93,North,-999,-999.0,0.0,86,0.00,,---,0.00,VWS V14.01,2013-10-02 10:58:00,
2013-10-02 07:03:00,55.6,51.5,29.93,North,-999,-999.0,0.0,86,0.00,,---,0.00,VWS V14.01,2013-10-02 11:03:00,
2013-10-02 07:09:00,55.6,51.5,29.93,North,-999,-999.0,0.0,86,0.00,,---,0.00,VWS V14.01,2013-10-02 11:09:00,
2013-10-02 07:14:00,55.4,51.3,29.93,North,-999,-999.0,0.0,86,0.00,,---,0.00,VWS V14.01,2013-10-02 11:14:00,
2013-10-02 07:19:00,55.4,51.3,29.93,North,-999,-999.0,0.0,86,0.00,,---,0.00,VWS V14.01,2013-10-02 11:19:00,
2013-10-02 07:24:00,55.4,51.3,29.93,North,-999,-999.0,0.0,86,0.00,,---,0.00,VWS V14.01,2013-10-02 11:24:00,
2013-10-02 07:29:00,55.4,51.3,29.94,North,-999,-999.0,0.0,86,0.00,,---,0.00,VWS V14.01,2013-10-02 11:29:00,
2013-10-02 07:34:00,55.4,51.3,29.94,North,-999,-999.0,0.0,86,0.00,,---,0.00,VWS V14.01,2013-10-02 11:34:00,
2013-10-02 07:39:00,55.4,51.3,29.94,North,-999,-999.0,0.0,86,0.00,,---,0.00,VWS V14.01,2013-10-02 11:39:00,
2013-10-02 07:44:00,55.4,51.3,29.94,North,-999,-999.0,0.0,86,0.00,,---,0.00,VWS V14.01,2013-10-02 11:44:00,
2013-10-02 07:49:00,55.6,51.5,29.95,North,-999,-999.0,0.0,86,0.00,,---,0.00,VWS V14.01,2013-10-02 11:49:00,
2013-10-02 07:54:00,55.6,51.5,29.95,North,-999,-999.0,0.0,86,0.00,,---,0.00,VWS V14.01,2013-10-02 11:54:00,
2013-10-02 07:59:00,55.8,51.7,29.95,North,-999,-999.0,0.0,86,0.00,,---,0.00,VWS V14.01,2013-10-02 11:59:00,
2013-10-02 08:05:00,55.8,51.7,29.95,North,-999,-999.0,0.0,86,0.00,,---,0.00,VWS V14.01,2013-10-02 12:05:00,
2013-10-02 08:10:00,56.0,51.9,29.95,North,-999,-999.0,0.0,86,0.00,,---,0.00,VWS V14.01,2013-10-02 12:10:00,
2013-10-02 08:15:00,56.2,52.1,29.95,North,-999,-999.0,0.0,86,0.00,,---,0.00,VWS V14.01,2013-10-02 12:15:00,
2013-10-02 08:20:00,56.3,52.5,29.95,North,-999,-999.0,0.0,87,0.00,,---,0.00,VWS V14.01,2013-10-02 12:20:00,
2013-10-02 08:25:00,56.5,52.7,29.95,North,-999,-999.0,0.0,87,0.00,,---,0.00,VWS V14.01,2013-10-02 12:25:00,
2013-10-02 08:30:00,56.9,53.1,29.96,North,-999,-999.0,0.0,87,0.00,,---,0.00,VWS V14.01,2013-10-02 12:30:00,
2013-10-02 08:35:00,57.2,53.4,29.96,North,-999,-999.0,0.0,87,0.00,,---,0.00,VWS V14.01,2013-10-02 12:35:00,
2013-10-02 08:40:00,57.8,54.0,29.96,North,-999,-999.0,0.0,87,0.00,,---,0.00,VWS V14.01,2013-10-02 12:40:00,
2013-10-02 08:45:00,58.1,54.6,29.96,North,-999,-999.0,0.0,88,0.00,,---,0.00,VWS V14.01,2013-10-02 12:45:00,
2013-10-02 08:50:00,58.7,55.2,29.96,North,-999,-999.0,0.0,88,0.00,,---,0.00,VWS V14.01,2013-10-02 12:50:00,
2013-10-02 08:55:00,59.0,55.5,29.96,North,-999,-999.0,0.0,88,0.00,,---,0.00,VWS V14.01,2013-10-02 12:55:00,
2013-10-02 09:00:00,59.8,55.9,29.96,North,-999,-999.0,0.0,87,0.00,,---,0.00,VWS V14.01,2013-10-02 13:00:00,
2013-10-02 09:05:00,60.3,56.4,29.96,North,-999,-999.0,0.0,87,0.00,,---,0.00,VWS V14.01,2013-10-02 13:05:00,
2013-10-02 09:11:00,60.8,57.2,29.96,North,-999,-999.0,0.0,88,0.00,,---,0.00,VWS V14.01,2013-10-02 13:11:00,
2013-10-02 09:16:00,61.6,58.0,29.96,North,-999,-999.0,0.0,88,0.00,,---,0.00,VWS V14.01,2013-10-02 13:16:00,
2013-10-02 09:21:00,62.5,58.9,29.96,North,-999,-999.0,0.0,88,0.00,,---,0.00,VWS V14.01,2013-10-02 13:21:00,
2013-10-02 09:26:00,63.5,59.6,29.97,North,-999,-999.0,0.0,87,0.00,,---,0.00,VWS V14.01,2013-10-02 13:26:00,
2013-10-02 09:31:00,64.4,60.5,29.97,North,-999,-999.0,0.0,87,0.00,,---,0.00,VWS V14.01,2013-10-02 13:31:00,
2013-10-02 09:36:00,65.5,61.2,29.97,North,-999,-999.0,0.0,86,0.00,,---,0.00,VWS V14.01,2013-10-02 13:36:00,
2013-10-02 09:41:00,66.4,61.8,29.97,North,-999,-999.0,0.0,85,0.00,,---,0.00,VWS V14.01,2013-10-02 13:41:00,
2013-10-02 09:46:00,67.3,62.0,29.97,North,-999,-999.0,0.0,83,0.00,,---,0.00,VWS V14.01,2013-10-02 13:46:00,
2013-10-02 09:51:00,68.4,63.0,29.97,North,-999,-999.0,0.0,83,0.00,,---,0.00,VWS V14.01,2013-10-02 13:51:00,
2013-10-02 09:56:00,71.1,64.6,29.97,North,-999,-999.0,0.0,80,0.00,,---,0.00,VWS V14.01,2013-10-02 13:56:00,
2013-10-02 10:01:00,75.1,68.2,29.97,North,-999,-999.0,0.0,79,0.00,,---,0.00,VWS V14.01,2013-10-02 14:01:00,
2013-10-02 10:07:00,79.6,70.2,29.97,North,-999,-999.0,0.0,73,0.00,,---,0.00,VWS V14.01,2013-10-02 14:07:00,
2013-10-02 10:12:00,82.6,71.8,29.97,North,-999,-999.0,0.0,70,0.00,,---,0.00,VWS V14.01,2013-10-02 14:12:00,
2013-10-02 10:17:00,85.5,72.4,29.97,North,-999,-999.0,0.0,65,0.00,,---,0.00,VWS V14.01,2013-10-02 14:17:00,
2013-10-02 10:22:00,86.4,69.9,29.97,North,-999,-999.0,0.0,58,0.00,,---,0.00,VWS V14.01,2013-10-02 14:22:00,
2013-10-02 10:27:00,87.1,70.5,29.96,North,-999,-999.0,0.0,58,0.00,,---,0.00,VWS V14.01,2013-10-02 14:27:00,
2013-10-02 10:32:00,88.0,70.9,29.97,North,-999,-999.0,0.0,57,0.00,,---,0.00,VWS V14.01,2013-10-02 14:32:00,
2013-10-02 10:37:00,89.6,71.3,29.97,North,-999,-999.0,0.0,55,0.00,,---,0.00,VWS V14.01,2013-10-02 14:37:00,
2013-10-02 10:42:00,91.3,71.2,29.97,North,-999,-999.0,0.0,52,0.00,,---,0.00,VWS V14.01,2013-10-02 14:42:00,
2013-10-02 10:47:00,91.4,70.7,29.97,North,-999,-999.0,0.0,51,0.00,,---,0.00,VWS V14.01,2013-10-02 14:47:00,
2013-10-02 10:52:00,91.8,71.1,29.97,North,-999,-999.0,0.0,51,0.00,,---,0.00,VWS V14.01,2013-10-02 14:52:00,
2013-10-02 10:57:00,92.2,68.4,29.96,North,-999,-999.0,0.0,46,0.00,,---,0.00,VWS V14.01,2013-10-02 14:57:00,
2013-10-02 11:02:00,91.4,69.0,29.97,North,-999,-999.0,0.0,48,0.00,,---,0.00,VWS V14.01,2013-10-02 15:02:00,
2013-10-02 11:08:00,92.2,69.1,29.97,North,-999,-999.0,0.0,47,0.00,,---,0.00,VWS V14.01,2013-10-02 15:08:00,
2013-10-02 11:13:00,91.8,68.7,29.96,North,-999,-999.0,0.0,47,0.00,,---,0.00,VWS V14.01,2013-10-02 15:13:00,
2013-10-02 11:18:00,92.0,68.9,29.96,North,-999,-999.0,0.0,47,0.00,,---,0.00,VWS V14.01,2013-10-02 15:18:00,
2013-10-02 11:23:00,92.5,69.3,29.96,North,-999,-999.0,0.0,47,0.00,,---,0.00,VWS V14.01,2013-10-02 15:23:00,
2013-10-02 11:28:00,93.6,69.7,29.96,North,-999,-999.0,0.0,46,0.00,,---,0.00,VWS V14.01,2013-10-02 15:28:00,
2013-10-02 11:33:00,93.4,68.9,29.96,North,-999,-999.0,0.0,45,0.00,,---,0.00,VWS V14.01,2013-10-02 15:33:00,
2013-10-02 11:37:00,93.8,67.9,29.96,North,-999,-999.0,0.0,43,0.00,,---,0.00,VWS V14.01,2013-10-02 15:37:00,
2013-10-02 11:42:00,93.8,68.6,29.96,North,-999,-999.0,0.0,44,0.00,,---,0.00,VWS V14.01,2013-10-02 15:42:00,
2013-10-02 11:47:00,93.2,68.7,29.96,North,-999,-999.0,0.0,45,0.00,,---,0.00,VWS V14.01,2013-10-02 15:47:00,
2013-10-02 11:52:00,94.0,69.4,29.96,North,-999,-999.0,0.0,45,0.00,,---,0.00,VWS V14.01,2013-10-02 15:52:00,
2013-10-02 11:57:00,94.0,66.7,29.95,North,-999,-999.0,0.0,41,0.00,,---,0.00,VWS V14.01,2013-10-02 15:57:00,
2013-10-02 12:02:00,93.1,67.3,29.95,North,-999,-999.0,0.0,43,0.00,,---,0.00,VWS V14.01,2013-10-02 16:02:00,
2013-10-02 12:08:00,91.4,67.1,29.95,North,-999,-999.0,0.0,45,0.00,,---,0.00,VWS V14.01,2013-10-02 16:08:00,
2013-10-02 12:13:00,92.7,68.9,29.95,North,-999,-999.0,0.0,46,0.00,,---,0.00,VWS V14.01,2013-10-02 16:13:00,
2013-10-02 12:18:00,94.3,69.7,29.95,North,-999,-999.0,0.0,45,0.00,,---,0.00,VWS V14.01,2013-10-02 16:18:00,
2013-10-02 12:23:00,95.6,68.9,29.95,North,-999,-999.0,0.0,42,0.00,,---,0.00,VWS V14.01,2013-10-02 16:23:00,
2013-10-02 12:28:00,95.6,68.2,29.95,North,-999,-999.0,0.0,41,0.00,,---,0.00,VWS V14.01,2013-10-02 16:28:00,
2013-10-02 12:33:00,95.8,67.6,29.95,North,-999,-999.0,0.0,40,0.00,,---,0.00,VWS V14.01,2013-10-02 16:33:00,
2013-10-02 12:38:00,96.1,67.9,29.94,North,-999,-999.0,0.0,40,0.00,,---,0.00,VWS V14.01,2013-10-02 16:38:00,
2013-10-02 12:43:00,97.9,69.5,29.94,North,-999,-999.0,0.0,40,0.00,,---,0.00,VWS V14.01,2013-10-02 16:43:00,
2013-10-02 12:48:00,98.8,68.8,29.94,North,-999,-999.0,0.0,38,0.00,,---,0.00,VWS V14.01,2013-10-02 16:48:00,
2013-10-02 12:53:00,98.1,68.2,29.94,North,-999,-999.0,0.0,38,0.00,,---,0.00,VWS V14.01,2013-10-02 16:53:00,
2013-10-02 12:58:00,98.8,67.2,29.94,North,-999,-999.0,0.0,36,0.00,,---,0.00,VWS V14.01,2013-10-02 16:58:00,
2013-10-02 13:03:00,98.3,66.0,29.93,North,-999,-999.0,0.0,35,0.00,,---,0.00,VWS V14.01,2013-10-02 17:03:00,
2013-10-02 13:09:00,97.9,64.8,29.93,North,-999,-999.0,0.0,34,0.00,,---,0.00,VWS V14.01,2013-10-02 17:09:00,
2013-10-02 13:14:00,97.9,66.4,29.93,North,-999,-999.0,0.0,36,0.00,,---,0.00,VWS V14.01,2013-10-02 17:14:00,
2013-10-02 13:19:00,98.6,67.1,29.93,North,-999,-999.0,0.0,36,0.00,,---,0.00,VWS V14.01,2013-10-02 17:19:00,
2013-10-02 13:24:00,98.6,67.1,29.92,North,-999,-999.0,0.0,36,0.00,,---,0.00,VWS V14.01,2013-10-02 17:24:00,
2013-10-02 13:29:00,96.7,65.4,29.92,North,-999,-999.0,0.0,36,0.00,,---,0.00,VWS V14.01,2013-10-02 17:29:00,
2013-10-02 13:34:00,97.2,67.4,29.92,North,-999,-999.0,0.0,38,0.00,,---,0.00,VWS V14.01,2013-10-02 17:34:00,
2013-10-02 13:39:00,98.3,66.0,29.92,North,-999,-999.0,0.0,35,0.00,,---,0.00,VWS V14.01,2013-10-02 17:39:00,
2013-10-02 13:44:00,99.2,66.8,29.92,North,-999,-999.0,0.0,35,0.00,,---,0.00,VWS V14.01,2013-10-02 17:44:00,
2013-10-02 13:49:00,98.6,66.2,29.92,North,-999,-999.0,0.0,35,0.00,,---,0.00,VWS V14.01,2013-10-02 17:49:00,
2013-10-02 13:54:00,96.8,64.7,29.92,North,-999,-999.0,0.0,35,0.00,,---,0.00,VWS V14.01,2013-10-02 17:54:00,
2013-10-02 13:59:00,94.9,63.8,29.91,North,-999,-999.0,0.0,36,0.00,,---,0.00,VWS V14.01,2013-10-02 17:59:00,
2013-10-02 14:05:00,93.6,64.2,29.91,North,-999,-999.0,0.0,38,0.00,,---,0.00,VWS V14.01,2013-10-02 18:05:00,
2013-10-02 14:10:00,94.9,65.3,29.91,North,-999,-999.0,0.0,38,0.00,,---,0.00,VWS V14.01,2013-10-02 18:10:00,
2013-10-02 14:15:00,97.0,64.8,29.91,North,-999,-999.0,0.0,35,0.00,,---,0.00,VWS V14.01,2013-10-02 18:15:00,
2013-10-02 14:20:00,99.2,66.8,29.91,North,-999,-999.0,0.0,35,0.00,,---,0.00,VWS V14.01,2013-10-02 18:20:00,
2013-10-02 14:25:00,101.0,66.6,29.91,North,-999,-999.0,0.0,33,0.00,,---,0.00,VWS V14.01,2013-10-02 18:25:00,
2013-10-02 14:30:00,98.3,64.3,29.91,North,-999,-999.0,0.0,33,0.00,,---,0.00,VWS V14.01,2013-10-02 18:30:00,
2013-10-02 14:35:00,98.1,65.0,29.91,North,-999,-999.0,0.0,34,0.00,,---,0.00,VWS V14.01,2013-10-02 18:35:00,
2013-10-02 14:40:00,99.7,64.6,29.90,North,-999,-999.0,0.0,32,0.00,,---,0.00,VWS V14.01,2013-10-02 18:40:00,
2013-10-02 14:45:00,99.0,62.2,29.90,North,-999,-999.0,0.0,30,0.00,,---,0.00,VWS V14.01,2013-10-02 18:45:00,
2013-10-02 14:50:00,98.8,64.7,29.90,North,-999,-999.0,0.0,33,0.00,,---,0.00,VWS V14.01,2013-10-02 18:50:00,
2013-10-02 14:55:00,99.0,65.8,29.90,North,-999,-999.0,0.0,34,0.00,,---,0.00,VWS V14.01,2013-10-02 18:55:00,
2013-10-02 15:01:00,100.1,65.8,29.90,North,-999,-999.0,0.0,33,0.00,,---,0.00,VWS V14.01,2013-10-02 19:01:00,
2013-10-02 15:06:00,100.3,66.0,29.89,North,-999,-999.0,0.0,33,0.00,,---,0.00,VWS V14.01,2013-10-02 19:06:00,
2013-10-02 15:11:00,99.7,65.5,29.89,North,-999,-999.0,0.0,33,0.00,,---,0.00,VWS V14.01,2013-10-02 19:11:00,
2013-10-02 15:16:00,99.7,64.6,29.89,North,-999,-999.0,0.0,32,0.00,,---,0.00,VWS V14.01,2013-10-02 19:16:00,
2013-10-02 15:21:00,100.8,66.4,29.89,North,-999,-999.0,0.0,33,0.00,,---,0.00,VWS V14.01,2013-10-02 19:21:00,
2013-10-02 15:26:00,101.2,65.0,29.89,North,-999,-999.0,0.0,31,0.00,,---,0.00,VWS V14.01,2013-10-02 19:26:00,
2013-10-02 15:31:00,102.2,66.8,29.89,North,-999,-999.0,0.0,32,0.00,,---,0.00,VWS V14.01,2013-10-02 19:31:00,
2013-10-02 15:36:00,103.5,66.0,29.89,North,-999,-999.0,0.0,30,0.00,,---,0.00,VWS V14.01,2013-10-02 19:36:00,
2013-10-02 15:41:00,103.1,65.7,29.89,North,-999,-999.0,0.0,30,0.00,,---,0.00,VWS V14.01,2013-10-02 19:41:00,
2013-10-02 15:46:00,102.2,64.9,29.89,North,-999,-999.0,0.0,30,0.00,,---,0.00,VWS V14.01,2013-10-02 19:46:00,
2013-10-02 15:51:00,100.6,64.5,29.88,North,-999,-999.0,0.0,31,0.00,,---,0.00,VWS V14.01,2013-10-02 19:51:00,
2013-10-02 15:56:00,100.1,65.0,29.88,North,-999,-999.0,0.0,32,0.00,,---,0.00,VWS V14.01,2013-10-02 19:56:00,
2013-10-02 16:01:00,99.0,63.1,29.88,North,-999,-999.0,0.0,31,0.00,,---,0.00,VWS V14.01,2013-10-02 20:01:00,
2013-10-02 16:07:00,96.1,61.5,29.88,North,-999,-999.0,0.0,32,0.00,,---,0.00,VWS V14.01,2013-10-02 20:07:00,
2013-10-02 16:12:00,95.2,62.4,29.88,North,-999,-999.0,0.0,34,0.00,,---,0.00,VWS V14.01,2013-10-02 20:12:00,
2013-10-02 16:17:00,95.0,62.3,29.88,North,-999,-999.0,0.0,34,0.00,,---,0.00,VWS V14.01,2013-10-02 20:17:00,
2013-10-02 16:22:00,94.1,63.9,29.88,North,-999,-999.0,0.0,37,0.00,,---,0.00,VWS V14.01,2013-10-02 20:22:00,
2013-10-02 16:27:00,92.0,63.5,29.88,North,-999,-999.0,0.0,39,0.00,,---,0.00,VWS V14.01,2013-10-02 20:27:00,
2013-10-02 16:32:00,90.5,63.6,29.88,North,-999,-999.0,0.0,41,0.00,,---,0.00,VWS V14.01,2013-10-02 20:32:00,
2013-10-02 16:37:00,88.6,63.9,29.89,North,-999,-999.0,0.0,44,0.00,,---,0.00,VWS V14.01,2013-10-02 20:37:00,
2013-10-02 16:42:00,87.3,63.4,29.89,North,-999,-999.0,0.0,45,0.00,,---,0.00,VWS V14.01,2013-10-02 20:42:00,
2013-10-02 16:47:00,86.6,64.0,29.89,North,-999,-999.0,0.0,47,0.00,,---,0.00,VWS V14.01,2013-10-02 20:47:00,
2013-10-02 16:52:00,86.4,65.0,29.89,North,-999,-999.0,0.0,49,0.00,,---,0.00,VWS V14.01,2013-10-02 20:52:00,
2013-10-02 16:57:00,86.6,64.6,29.88,North,-999,-999.0,0.0,48,0.00,,---,0.00,VWS V14.01,2013-10-02 20:57:00,
2013-10-02 17:02:00,86.4,65.0,29.88,North,-999,-999.0,0.0,49,0.00,,---,0.00,VWS V14.01,2013-10-02 21:02:00,
2013-10-02 17:08:00,86.8,65.4,29.88,North,-999,-999.0,0.0,49,0.00,,---,0.00,VWS V14.01,2013-10-02 21:08:00,
2013-10-02 17:13:00,87.1,65.1,29.88,North,-999,-999.0,0.0,48,0.00,,---,0.00,VWS V14.01,2013-10-02 21:13:00,
2013-10-02 17:18:00,87.5,65.4,29.88,North,-999,-999.0,0.0,48,0.00,,---,0.00,VWS V14.01,2013-10-02 21:18:00,
2013-10-02 17:23:00,87.3,65.2,29.88,North,-999,-999.0,0.0,48,0.00,,---,0.00,VWS V14.01,2013-10-02 21:23:00,
2013-10-02 17:28:00,88.6,66.4,29.88,North,-999,-999.0,0.0,48,0.00,,---,0.00,VWS V14.01,2013-10-02 21:28:00,
2013-10-02 17:33:00,89.3,65.2,29.89,North,-999,-999.0,0.0,45,0.00,,---,0.00,VWS V14.01,2013-10-02 21:33:00,
2013-10-02 17:38:00,89.6,66.1,29.88,North,-999,-999.0,0.0,46,0.00,,---,0.00,VWS V14.01,2013-10-02 21:38:00,
2013-10-02 17:43:00,89.8,65.6,29.88,North,-999,-999.0,0.0,45,0.00,,---,0.00,VWS V14.01,2013-10-02 21:43:00,
2013-10-02 17:48:00,90.7,66.5,29.88,North,-999,-999.0,0.0,45,0.00,,---,0.00,VWS V14.01,2013-10-02 21:48:00,
2013-10-02 17:53:00,90.4,64.9,29.88,North,-999,-999.0,0.0,43,0.00,,---,0.00,VWS V14.01,2013-10-02 21:53:00,
2013-10-02 17:58:00,88.0,63.4,29.88,North,-999,-999.0,0.0,44,0.00,,---,0.00,VWS V14.01,2013-10-02 21:58:00,
2013-10-02 18:04:00,86.8,63.6,29.88,North,-999,-999.0,0.0,46,0.00,,---,0.00,VWS V14.01,2013-10-02 22:04:00,
2013-10-02 18:09:00,85.9,64.0,29.88,North,-999,-999.0,0.0,48,0.00,,---,0.00,VWS V14.01,2013-10-02 22:09:00,
2013-10-02 18:14:00,84.2,63.0,29.88,North,-999,-999.0,0.0,49,0.00,,---,0.00,VWS V14.01,2013-10-02 22:14:00,
2013-10-02 18:19:00,83.2,63.2,29.88,North,-999,-999.0,0.0,51,0.00,,---,0.00,VWS V14.01,2013-10-02 22:19:00,
2013-10-02 18:24:00,81.7,62.9,29.89,North,-999,-999.0,0.0,53,0.00,,---,0.00,VWS V14.01,2013-10-02 22:24:00,
2013-10-02 18:29:00,80.6,63.0,29.89,North,-999,-999.0,0.0,55,0.00,,---,0.00,VWS V14.01,2013-10-02 22:29:00,
2013-10-02 18:34:00,79.6,63.0,29.89,North,-999,-999.0,0.0,57,0.00,,---,0.00,VWS V14.01,2013-10-02 22:34:00,
2013-10-02 18:39:00,78.7,62.7,29.88,North,-999,-999.0,0.0,58,0.00,,---,0.00,VWS V14.01,2013-10-02 22:39:00,
2013-10-02 18:44:00,77.8,62.8,29.89,North,-999,-999.0,0.0,60,0.00,,---,0.00,VWS V14.01,2013-10-02 22:44:00,
2013-10-02 18:49:00,77.0,62.5,29.89,North,-999,-999.0,0.0,61,0.00,,---,0.00,VWS V14.01,2013-10-02 22:49:00,
2013-10-02 18:54:00,76.7,62.7,29.89,North,-999,-999.0,0.0,62,0.00,,---,0.00,VWS V14.01,2013-10-02 22:54:00,
2013-10-02 19:00:00,76.0,62.5,29.89,North,-999,-999.0,0.0,63,0.00,,---,0.00,VWS V14.01,2013-10-02 23:00:00,
2013-10-02 19:05:00,75.2,62.2,29.89,North,-999,-999.0,0.0,64,0.00,,---,0.00,VWS V14.01,2013-10-02 23:05:00,
2013-10-02 19:10:00,74.5,62.0,29.89,North,-999,-999.0,0.0,65,0.00,,---,0.00,VWS V14.01,2013-10-02 23:10:00,
2013-10-02 19:15:00,74.2,62.1,29.89,North,-999,-999.0,0.0,66,0.00,,---,0.00,VWS V14.01,2013-10-02 23:15:00,
2013-10-02 19:20:00,73.6,62.0,29.89,North,-999,-999.0,0.0,67,0.00,,---,0.00,VWS V14.01,2013-10-02 23:20:00,
2013-10-02 19:25:00,73.1,61.5,29.89,North,-999,-999.0,0.0,67,0.00,,---,0.00,VWS V14.01,2013-10-02 23:25:00,
2013-10-02 19:30:00,72.7,61.5,29.90,North,-999,-999.0,0.0,68,0.00,,---,0.00,VWS V14.01,2013-10-02 23:30:00,
2013-10-02 19:32:00,72.5,61.8,29.90,North,-999,-999.0,0.0,69,0.00,,---,0.00,VWS V14.01,2013-10-02 23:32:00,
2013-10-02 19:37:00,72.5,61.8,29.90,North,-999,-999.0,0.0,69,0.00,,---,0.00,VWS V14.01,2013-10-02 23:37:00,
2013-10-02 19:59:00,70.7,60.8,29.90,North,-999,-999.0,0.0,71,0.00,,---,0.00,VWS V14.01,2013-10-02 23:59:00,
2013-10-02 20:05:00,70.7,60.8,29.90,North,-999,-999.0,0.0,71,0.00,,---,0.00,VWS V14.01,2013-10-03 00:05:00,
2013-10-02 21:01:00,68.4,60.5,29.90,North,-999,-999.0,0.0,76,0.00,,---,0.00,VWS V14.01,2013-10-03 01:01:00,
2013-10-02 21:06:00,68.2,60.7,29.90,North,-999,-999.0,0.0,77,0.00,,---,0.00,VWS V14.01,2013-10-03 01:06:00,
2013-10-02 21:11:00,68.0,60.5,29.90,North,-999,-999.0,0.0,77,0.00,,---,0.00,VWS V14.01,2013-10-03 01:11:00,
2013-10-02 21:16:00,67.9,60.4,29.90,North,-999,-999.0,0.0,77,0.00,,---,0.00,VWS V14.01,2013-10-03 01:16:00,
2013-10-02 21:21:00,67.7,60.2,29.91,North,-999,-999.0,0.0,77,0.00,,---,0.00,VWS V14.01,2013-10-03 01:21:00,
2013-10-02 21:27:00,67.5,60.0,29.91,North,-999,-999.0,0.0,77,0.00,,---,0.00,VWS V14.01,2013-10-03 01:27:00,
2013-10-02 21:32:00,67.3,60.2,29.91,North,-999,-999.0,0.0,78,0.00,,---,0.00,VWS V14.01,2013-10-03 01:32:00,
2013-10-02 21:37:00,67.3,60.2,29.91,North,-999,-999.0,0.0,78,0.00,,---,0.00,VWS V14.01,2013-10-03 01:37:00,
2013-10-02 21:43:00,67.1,60.0,29.91,North,-999,-999.0,0.0,78,0.00,,---,0.00,VWS V14.01,2013-10-03 01:43:00,
2013-10-02 21:48:00,67.0,60.3,29.91,North,-999,-999.0,0.0,79,0.00,,---,0.00,VWS V14.01,2013-10-03 01:48:00,
2013-10-02 21:53:00,66.8,60.1,29.91,North,-999,-999.0,0.0,79,0.00,,---,0.00,VWS V14.01,2013-10-03 01:53:00,
2013-10-02 21:58:00,66.6,60.2,29.91,North,-999,-999.0,0.0,80,0.00,,---,0.00,VWS V14.01,2013-10-03 01:58:00,
2013-10-02 22:03:00,66.4,60.0,29.91,North,-999,-999.0,0.0,80,0.00,,---,0.00,VWS V14.01,2013-10-03 02:03:00,
2013-10-02 22:05:00,66.4,60.0,29.91,North,-999,-999.0,0.0,80,0.00,,---,0.00,VWS V14.01,2013-10-03 02:05:00,
2013-10-02 22:11:00,66.2,59.9,29.92,North,-999,-999.0,0.0,80,0.00,,---,0.00,VWS V14.01,2013-10-03 02:11:00,
2013-10-02 22:14:00,66.1,59.8,29.92,North,-999,-999.0,0.0,80,0.00,,---,0.00,VWS V14.01,2013-10-03 02:14:00,
2013-10-02 22:17:00,66.1,59.8,29.92,North,-999,-999.0,0.0,80,0.00,,---,0.00,VWS V14.01,2013-10-03 02:17:00,
2013-10-02 22:23:00,66.1,59.8,29.92,North,-999,-999.0,0.0,80,0.00,,---,0.00,VWS V14.01,2013-10-03 02:23:00,
2013-10-02 22:59:00,65.2,59.6,29.92,North,-999,-999.0,0.0,82,0.00,,---,0.00,VWS V14.01,2013-10-03 02:59:00,
2013-10-02 23:05:00,65.2,59.6,29.92,North,-999,-999.0,0.0,82,0.00,,---,0.00,VWS V14.01,2013-10-03 03:05:00,